Torna al catalogo

FALCON 9 DEB

AttivoVLEO
NORAD 52893·DEBRIS·🇺🇸 United States

Lanciato Jun 19, 2022 da Cape Canaveral Space Force Station

Loading…

Prossimi Passaggi (prossime 24 ore)

TLE

AggiornatoSource: Space-Track

Epoca: Sep 13, 2026, 18:25 UTC

1 52893U 22064F   26256.76750440  .00005120  00000-0  14437-3 0  9995
2 52893  52.9868 271.3516 0007952  80.0566 280.1333 15.38179100193367

Traccia FALCON 9 DEB in tempo reale con AllMySat

Download on the App Store